Regional Weather Roundup
Issued by NWS Cleveland, OH

Current Version | Previous Version | Text Only | Print | Product List | Glossary On
Versions: 1 2 3 4 5 6 7 8 9 10 11 12 13 14 15 16 17 18 19 20 21 22 23 24 25 26 27 28 29 30 31 32 33 34 35 36 37 38 39 40 41 42 43 44 45 46 47 48 49 50
000
ASUS41 KCLE 271810
RWRCLE
OHIO REGIONAL WEATHER ROUNDUP
NATIONAL WEATHER SERVICE WILMINGTON, OH
100 PM EST THU NOV 27 2014

NOTE: "FAIR" INDICATES FEW OR NO CLOUDS BELOW 12,000 FEET WITH NO
SIGNIFICANT WEATHER AND/OR OBSTRUCTIONS TO VISIBILITY.

OHZ001>008-015>018-024>027-034-035-043-044-271900-
   NORTHWEST OHIO

CITY           SKY/WX    TMP DP  RH WIND       PRES   REMARKS
DEFIANCE       CLOUDY    33  24  69 W7        30.21F WCI  27
FINDLAY        CLOUDY    35  23  61 W14       30.18F WCI  26
TOLEDO EXPRESS CLOUDY    32  23  69 W15       30.18F WCI  22
TOLEDO METCALF PTSUNNY   34  23  64 W13       30.18F WCI  25
LIMA           CLOUDY    33  22  63 W13       30.20F WCI  24
$$

OHZ009>014-019>023-028>033-038-089-271900-
   NORTHEAST OHIO

CITY           SKY/WX    TMP DP  RH WIND       PRES   REMARKS
CLE-HOPKINS    CLOUDY    31  22  69 W14       30.16F WCI  21
CLE-LAKEFRONT  CLOUDY    32  22  66 W16       30.14S WCI  21
CUY CO. ARPT   PTSUNNY   34  25  69 NW14G23   30.13F WCI  24
LORAIN-ELYRIA  CLOUDY    31  22  69 W15       30.15F WCI  20
ASHTABULA      CLOUDY    31  26  82 W12       30.10S WCI  22
AKRON-CANTON   LGT SNOW  32  24  72 NW13G21   30.11S WCI  22
WOOSTER        CLOUDY    30  22  72 NW14      30.14S WCI  19
MANSFIELD      CLOUDY    31  21  66 NW7       30.14S WCI  24
YOUNGSTOWN     LGT SNOW  31  27  85 NW9       30.08R FOG     WCI  23
$$

OHZ042-051>053-060>062-070>072-077>081-271900-
  SOUTHWEST OHIO

CITY           SKY/WX    TMP DP  RH WIND       PRES   REMARKS
CINC-COVINGTON FLURRIES  33  19  56 W14G28    30.27F WCI  23
CINC-LUNKEN    CLOUDY    34  21  59 W10       30.30F WCI  26
HAMILTON       CLOUDY    34  22  61 W15       30.29F WCI  24
DAYTON         CLOUDY    33  21  61 W15       30.24S WCI  23
WRIGHT-PAT AFB CLOUDY    33  21  62 W12G18    30.24S WCI  24
DAYTON GENERAL CLOUDY    32  22  66 W9G17     30.24S WCI  24
WILMINGTON     CLOUDY    32  19  58 NW15G22   30.22F WCI  22
$$

OHZ036-037-039>041-045>050-054>059-063>069-073>076-082>088-271900-
  CENTRAL AND SOUTHEAST OHIO

CITY           SKY/WX    TMP DP  RH WIND       PRES   REMARKS
COLUMBUS       CLOUDY    31  22  69 NW14      30.19S WCI  21
OSU AIRPORT    CLOUDY    31  23  72 NW9       30.19F WCI  23
BOLTON FIELD   CLOUDY    32  23  69 NW12      30.20F WCI  23
RICKENBACK AFB CLOUDY    32  23  69 W14       30.21R WCI  22
NEWARK         CLOUDY    31  23  72 N12       30.17F WCI  22
MARION         CLOUDY    32  20  61 NW10      30.18S WCI  24
LANCASTER      CLOUDY    32  25  75 NW10      30.20S WCI  24
ZANESVILLE     CLOUDY    33  25  72 NW10      30.15S WCI  25
NEW PHILLY     LGT SNOW  32  26  78 NW10      30.14S WCI  24
$$


USA.gov is the U.S. government's official web portal to all federal, state and local government web resources and services.